Tracking 17694 objects as of 31-May-2016
HD Live streaming from Space Station
objects crossing your sky now

SL-16 DEB

Track SL-16 DEB now!
10-day predictions


NORAD ID: 22289
Int'l Code: 1992-093D
Perigee: 749.4 km
Apogee: 839.4 km
Inclination: 70.8 °
Period: 100.6 minutes
Semi major axis: 7165 km
RCS: 0.0658 m2 (small)
Launch date: December 25, 1992
Source: Commonwealth of Independent States (former USSR) (CIS)
Launch site: TYURATAM MISSILE AND SPACE COMPLEX (TTMTR)

Note: This is SATELLITE DEBRIS
Your satellite tracking list
Your tracking list is empty





NASA's NSSDC Master Catalog

Two Line Element Set (TLE):
1 22289U 92093D   16150.95824200 +.00000019 +00000-0 +26046-4 0  9991
2 22289 070.8332 031.4752 0062777 218.5778 236.7001 14.31334487222516
Source of the keplerian elements: AFSPC

N2YO: 607